Regional Weather Roundup
Issued by NWS New Orleans/Baton Rouge, LA

Home | Current Version | Previous Version | Graphics & Text | Print | Product List | Glossary On
Versions: 1 2 3 4 5 6 7 8 9 10 11 12 13 14 15 16 17 18 19 20 21 22 23 24 25 26 27 28 29 30 31 32 33 34 35 36 37 38 39 40 41 42 43 44 45 46 47 48 49 50
898
ASUS44 KLIX 231505
RWRLIX
NEW ORLEANS REGIONAL WEATHER ROUNDUP
NATIONAL WEATHER SERVICE NEW ORLEANS LA
1000 AM CDT TUE SEP 23 2014

NOTE: "FAIR" INDICATES FEW OR NO CLOUDS BELOW 12,000 FEET WITH NO
      SIGNIFICANT WEATHER AND/OR OBSTRUCTIONS TO VISIBILITY.
      SKY/WX - SKY CONDITION AND SIGNIFICANT WEATHER.
      TMP - AIR TEMPERATURE.     DP    - DEWPOINT TEMPERATURE.
      RH  - RELATIVE HUMIDITY.   PRES  - PRESSURE.
      HI  - HEAT INDEX.          WCI   - WIND CHILL INDEX.

*  THESE STATIONS ARE NOT NWS OR FAA STATIONS AND ARE NOT UNDER
   NWS QUALITY CONTROL.

LAZ038-040-048-061>063-065>067-069-231600-
SOUTHEAST LOUISIANA

CITY           SKY/WX    TMP DP  RH WIND       PRES   REMARKS
N.O. AUDUBON     N/A     79  58  49 MISG        N/A
N.O. INTL ARPT MOSUNNY   76  59  55 NE10      30.10S
N.O. LAKEFRONT SUNNY     74  58  57 NE13      30.11R
N.O. DOWNTOWN*   N/A     73  54  49 NE5       30.11S
SLIDELL        SUNNY     73  56  54 NE7       30.11S
BATON ROUGE    SUNNY     73  56  54 NE8       30.13S
BOOTHVILLE     SUNNY     81  62  52 NE12G17   30.08R
BELLE CHASSE   MOSUNNY   77  60  55 NE13      30.10R
BOGALUSA*        N/A     72  55  55 NE6       30.15R
GALLIANO*      NOT AVBL
NEW ROADS*       N/A     73  54  52 E8        30.14R
GONZALES*        N/A     72  60  64 NE7       30.12S
HAMMOND*       SUNNY     73  54  49 NE5       30.14S
HOUMA*         SUNNY     75  39  27 NE12      30.10R
PORT FOURCHON* SUNNY     79  66  65 NE17      30.11R

$$

MSZ070-080>082-231600-
SOUTHERN MISSISSIPPI

CITY           SKY/WX    TMP DP  RH WIND       PRES   REMARKS
MCCOMB         SUNNY     70  53  54 E8        30.15R
GULFPORT       SUNNY     74  55  51 NE8       30.10S
BILOXI         SUNNY     74  57  55 NE8       30.11S
PASCAGOULA     SUNNY     73  57  57 NE8       30.11R
STENNIS ARPT*  SUNNY     72  52  49 NE7       30.12

$$

COASTAL OBSERVATIONS
LAKE AND NEARSHORE STATIONS

STATION/POSITION TIME  TEMP    WIND        PRES    WAVE
                       AIR SEA DIR/SP/G            HT/PER
                 (UTC) (F)     (DEG/KT/KT) (MB)    (FT/S)
PASCAGOULA       1500   74      30/  7/ 11 1018.7
WAVELAND YACHT   1500   70      50/ 11/ 12 1019.0
GRAND ISLE       1500   78 80   60/ 15/ 20 1018.8
SOUTHWEST PASS   1500   83 88              1018.1
NEW CANAL        1400   71 77   70/ 14/ 17 1019.7
SHELL BEACH      1500   74 75   40/ 16/ 18 1019.1

OFFSHORE STATIONS

STATION/POSITION TIME  TEMP    WIND        PRES    WAVE
                       AIR SEA DIR/SP/G            HT/PER
                 (UTC) (F)     (DEG/KT/KT) (MB)    (FT/S)
64 S DAUPHIN ISL 1448   78 83   50/ 17/ 21 1018.2    5/ 6

$$




USA.gov is the U.S. government's official web portal to all federal, state and local government web resources and services.